[[{"header":{"parameterUnit":"m.s-1","parameterCategory":1,"la1":30.2991,"la2":30.254,"lo1":-89.0895,"lo2":-89.0444,"dy":0.0017,"dx":0.0017,"nx":28,"ny":28,"refTime":"2025-11-24T03:00:00:Z","depth":0,"parameterNumber":2,"parameterNumberName":"U-component_of_WINDS"},"data":[0,0,0,0,0,0,0,0,0,0,0,0,0,0,0,0,0,0,0,0,0,0,0,0,0,0,0,0,0,0,0,0,0,0,0,0,0,0,0,0,0,0,0,0,0,0,0,0,0,0,0,0,0,0,0,0,0,0,-2.9656,-2.9657,0,-2.9739,-2.974,-2.9741,-2.9751,-2.975,-2.9749,-2.9749,-2.9833,-2.9836,-2.9839,0,0,0,0,0,0,0,0,0,0,0,0,0,-2.9505,-2.9508,-2.9656,-2.9657,-2.9658,-2.9739,-2.974,-2.9742,-2.9751,-2.975,-2.9749,-2.9748,-2.9832,-2.9836,-2.9839,0,0,0,0,0,0,0,0,0,0,0,0,0,-2.9578,-2.9509,-2.9656,-2.9673,-2.9675,-2.9739,-2.974,-2.9742,-2.9751,-2.975,-2.9749,-2.9748,-2.9831,-2.9835,-2.984,-2.9892,0,0,-2.9854,-2.9856,0,0,0,0,0,0,0,0,-2.9574,-2.9583,-2.9669,-2.9672,-2.9675,-2.9734,-2.9718,-2.9792,-2.9752,-2.9722,-2.9749,-2.9747,-2.9801,-2.9808,-2.9826,-2.9896,-2.99,-2.9854,-2.9857,-2.9859,-2.986,0,0,0,0,0,0,0,-2.9569,-2.958,-2.9689,-2.9671,-2.9674,-2.9676,-2.9685,-2.9732,-2.9768,-2.9725,-2.9726,-2.9736,-2.9802,-2.9822,-2.9828,-2.9901,-2.9854,-2.9858,-2.9861,-2.9862,-3.0018,-3.002,0,0,0,0,0,0,-2.9561,-2.9576,-2.9686,-2.9692,-2.962,-2.968,-2.969,-2.9716,-2.9767,-2.9774,-2.9737,-2.9736,-2.9815,-2.9823,-2.9831,-2.9895,-2.9859,-2.9863,-2.9865,-3.0017,-3.0019,-3.002,0,0,0,0,0,0,-2.9557,-2.957,-2.9683,-2.9634,-2.9648,-2.9684,-2.9713,-2.9718,-2.9738,-2.9776,-2.9782,-2.975,-2.9814,-2.9825,-2.9877,-2.9898,-2.9865,-2.9869,-3.0015,-3.0018,-3.002,-3.0024,0,0,0,0,0,0,-2.9553,-2.9569,-2.9589,-2.9634,-2.9651,-2.9727,-2.9714,-2.9721,-2.9746,-2.9745,-2.979,-2.9796,-2.9814,-2.987,-2.9882,-2.9904,-2.9873,-3.0014,-3.0016,-3.0019,-3.0022,-3.0026,-3.003,0,0,0,0,0,-2.9548,-2.9587,-2.959,-2.9604,-2.9677,-2.9729,-2.9738,-2.9758,-2.9747,-2.9768,-2.9793,-2.9795,-2.9895,-2.9876,-2.9888,-2.9912,-3.0012,-3.0016,-3.0019,-3.0021,-3.0026,-3.003,0,0,0,0,0,0,-2.9543,-2.9593,-2.9597,-2.9653,-2.9686,-2.973,-2.9756,-2.9762,-2.9799,-2.9797,-2.982,-2.983,-2.9881,-2.9902,-2.988,-2.9966,-2.9953,-2.9958,-2.995,-2.9955,-2.9958,-2.9951,-2.9876,0,0,0,0,0,-2.9549,-2.9587,-2.9629,-2.9674,-2.969,-2.9721,-2.9744,-2.9756,-2.9792,-2.9806,-2.9834,-2.9869,-2.9908,-2.9933,-2.9971,-3.0027,-3.0036,-3.005,-3.0053,-3.0056,-3.006,-3.0091,-3.0097,-3.0031,-3.0031,-3.0031,0,0,-2.9561,-2.9593,-2.9615,-2.9673,-2.9701,-2.9739,-2.9732,-2.9773,-2.9802,-2.9812,-2.9862,-2.9885,-2.9925,-2.9979,-3.0004,-2.9998,-3.0081,-3.006,-3.0062,-3.0065,-3.0095,-3.0101,-3.0107,-3.0033,-3.0033,-3.0032,0,0,-2.9601,-2.963,-2.967,-2.9698,-2.974,-2.976,-2.977,-2.9813,-2.9828,-2.988,-2.9888,-2.9923,-2.999,-3.0018,-3.0041,-3.0094,-3.0097,-3.0106,-3.0124,-3.0154,-3.0159,-3.0164,-3.0181,-3.0188,-3.011,-3.011,-3.011,0,-2.961,-2.9668,-2.969,-2.9731,-2.9756,-2.9768,-2.9808,-2.9835,-2.9887,-2.9904,-2.9897,-2.9982,-3.0009,-3.007,-3.0083,-3.0102,-3.0113,-3.01,-3.0157,-3.0162,-3.0166,-3.0183,-3.019,-3.0111,-3.0111,-3.0111,-3.0111,0,-2.9677,-2.9717,-2.9745,-2.9795,-2.9824,-2.9864,-2.9892,-2.9919,-2.9929,-2.995,-3.0002,-3.0036,-3.0081,-3.0097,-3.0108,-3.016,-3.0154,-3.0152,-3.0138,-3.0173,-3.0189,-3.0196,-3.0112,-3.0112,-3.0112,-3.0111,0,0,-2.9714,-2.9777,-2.9787,-2.981,-2.9858,-2.9889,-2.9931,-2.9976,-2.9997,-3.0034,-3.0069,-3.0126,-3.0124,-3.015,-3.0164,-3.0191,-3.0229,-3.0185,-3.0186,-3.0191,-3.0287,-3.0287,-3.0295,-3.0233,-3.0234,-3.0235,-3.0283,0,-2.9759,-2.9833,-2.9854,-2.9916,-2.9954,-2.9967,-3.0003,-3.0036,-3.0057,-3.0092,-3.0116,-3.0155,-3.0151,-3.0166,-3.0193,-3.0219,-3.0248,-3.0216,-3.0264,-3.0266,-3.0252,-3.0303,-3.0304,-3.0347,-3.029,-3.0291,-3.0292,0,-2.9821,-2.9858,-2.9924,-2.9967,-2.9984,-3.0016,-3.0059,-3.0092,-3.0131,-3.0144,-3.0174,-3.0186,-3.023,-3.0216,-3.0276,-3.0253,-3.0275,-3.0291,-3.0293,-3.0297,-3.0279,-3.0307,-3.0362,-3.0368,-3.0303,-3.0302,-3.0301,0,-2.984,-2.9907,-2.9955,-2.9975,-3.0027,-3.0049,-3.0072,-3.0109,-3.0135,-3.0172,-3.0189,-3.0232,-3.0254,-3.0287,-3.031,-3.0298,-3.0368,-3.0356,-3.038,-3.0379,-3.0392,-3.0391,-3.045,-3.0409,-3.0409,-3.0409,-3.0409,0,-2.9886,-2.9925,-2.9964,-2.9993,-3.0038,-3.0063,-3.0106,-3.013,-3.0163,-3.0197,-3.0212,-3.0243,-3.0273,-3.0309,-3.0328,-3.0374,-3.0385,-3.0397,-3.0401,-3.0394,-3.0392,-3.0407,-3.0404,-3.0411,-3.0411,-3.041,-3.041,0,-2.9914,-2.9942,-2.9995,-3.004,-3.0053,-3.0083,-3.0123,-3.0152,-3.0174,-3.0217,-3.0229,-3.0264,-3.0307,-3.0334,-3.0388,-3.0401,-3.0452,-3.0456,-3.0438,-3.044,-3.0462,-3.0459,-3.0531,-3.0541,-3.0495,-3.0496,-3.0496,0,-2.9941,-2.9971,-3.002,-3.0044,-3.0067,-3.0106,-3.0132,-3.0159,-3.0185,-3.0232,-3.0255,-3.0299,-3.0336,-3.0404,-3.0434,-3.0476,-3.048,-3.0503,-3.0486,-3.0479,-3.0479,-3.0476,-3.0478,-3.0504,-3.0505,-3.0505,-3.0505,0,-2.9985,-2.9997,-3.0035,-3.0077,-3.0108,-3.0143,-3.0178,-3.0197,-3.0229,-3.0258,-3.0302,-3.0331,-3.0387,-3.043,-3.0475,-3.0499,-3.0507,-3.0511,-3.0518,-3.051,-3.0499,-3.0504,-3.0444,-3.0508,-3.0508,-3.0508,-3.0507,-3.0507,-3.0012,-3.004,-3.0078,-3.012,-3.0149,-3.0181,-3.0211,-3.0237,-3.0275,-3.0322,-3.0336,-3.0382,-3.042,-3.0481,-3.0506,-3.0543,-3.0539,-3.055,-3.0553,-3.0555,-3.0554,-3.0495,-3.0551,-3.0551,-3.0551,-3.0551,-3.0551,0,-3.0055,-3.0081,-3.0119,-3.0167,-3.02,-3.0207,-3.0246,-3.0272,-3.0312,-3.0348,-3.0384,-3.0434,-3.0477,-3.0511,-3.0555,-3.0578,-3.0583,-3.0588,-3.0585,-3.0591,-3.0555,-3.0544,-3.0583,-3.0583,-3.0583,-3.0583,-3.0583,-3.0583,-3.0082,-3.0129,-3.0146,-3.0208,-3.0234,-3.0279,-3.03,-3.033,-3.0359,-3.0415,-3.045,-3.0472,-3.0508,-3.0554,-3.0593,-3.0603,-3.0617,-3.0622,-3.0631,-3.0597,-3.0593,-3.059,-3.0579,-3.0625,-3.0625,-3.0663,-3.0664,-3.0664]},{"header":{"parameterUnit":"m.s-1","parameterCategory":1,"la1":30.2991,"la2":30.254,"lo1":-89.0895,"lo2":-89.0444,"dy":0.0017,"dx":0.0017,"nx":28,"ny":28,"refTime":"2025-11-24T03:00:00:Z","depth":0,"parameterNumber":3,"parameterNumberName":"V-component_of_WINDS"},"data":[0,0,0,0,0,0,0,0,0,0,0,0,0,0,0,0,0,0,0,0,0,0,0,0,0,0,0,0,0,0,0,0,0,0,0,0,0,0,0,0,0,0,0,0,0,0,0,0,0,0,0,0,0,0,0,0,0,0,2.827,2.8271,0,2.8358,2.8359,2.836,2.8378,2.8378,2.8377,2.8376,2.8467,2.847,2.8473,0,0,0,0,0,0,0,0,0,0,0,0,0,2.8119,2.8122,2.827,2.8271,2.8272,2.8358,2.8359,2.8361,2.8379,2.8378,2.8377,2.8376,2.8466,2.847,2.8473,0,0,0,0,0,0,0,0,0,0,0,0,0,2.8194,2.8123,2.827,2.8291,2.8294,2.8358,2.8359,2.8361,2.8379,2.8378,2.8377,2.8376,2.8465,2.8469,2.8474,2.8522,0,0,2.8488,2.849,0,0,0,0,0,0,0,0,2.819,2.8199,2.8287,2.829,2.8293,2.8356,2.8339,2.8415,2.8379,2.8347,2.8376,2.8375,2.8431,2.8438,2.8457,2.8526,2.853,2.8488,2.8491,2.8493,2.8494,0,0,0,0,0,0,0,2.8184,2.8196,2.8305,2.8288,2.8292,2.8298,2.8307,2.8354,2.8393,2.8349,2.8351,2.8361,2.8432,2.8453,2.8459,2.8531,2.8488,2.8492,2.8495,2.8496,2.8648,2.8649,0,0,0,0,0,0,2.8175,2.8191,2.8302,2.8308,2.8238,2.8301,2.8312,2.8337,2.8393,2.84,2.8362,2.8362,2.8445,2.8454,2.8462,2.8525,2.8493,2.8497,2.85,2.8647,2.8648,2.865,0,0,0,0,0,0,2.8172,2.8185,2.8299,2.825,2.8265,2.8305,2.8333,2.8339,2.836,2.8402,2.841,2.8375,2.8445,2.8456,2.8508,2.8528,2.8499,2.8503,2.8645,2.8647,2.8649,2.8649,0,0,0,0,0,0,2.8167,2.8184,2.8201,2.825,2.8267,2.8342,2.8334,2.8342,2.8367,2.8368,2.8417,2.8424,2.8445,2.8501,2.8512,2.8534,2.8507,2.8644,2.8646,2.8648,2.8647,2.865,2.8653,0,0,0,0,0,2.8162,2.8197,2.8202,2.8216,2.8291,2.8343,2.8353,2.8376,2.8369,2.8388,2.8416,2.8422,2.8524,2.8506,2.8519,2.8542,2.8642,2.8645,2.8648,2.8646,2.865,2.8653,0,0,0,0,0,0,2.8149,2.8204,2.821,2.8262,2.8298,2.8346,2.837,2.8379,2.8418,2.8416,2.8444,2.8455,2.8506,2.8529,2.8508,2.8594,2.8583,2.8589,2.8576,2.8581,2.8584,2.8577,2.851,0,0,0,0,0,2.8152,2.819,2.8236,2.8277,2.8295,2.833,2.8353,2.8368,2.8406,2.8422,2.8453,2.849,2.8531,2.8557,2.8596,2.8651,2.8663,2.8673,2.8676,2.8679,2.8683,2.8716,2.8722,2.8659,2.8659,2.8659,0,0,2.8159,2.8194,2.8216,2.8276,2.8305,2.8344,2.8342,2.8383,2.8412,2.8428,2.8479,2.8504,2.8547,2.8601,2.8626,2.8622,2.8704,2.8682,2.8684,2.8687,2.872,2.8726,2.8731,2.8661,2.8661,2.8661,0,0,2.8193,2.8222,2.8261,2.8291,2.8336,2.8359,2.8369,2.8416,2.8433,2.8485,2.8498,2.8535,2.8603,2.8635,2.8659,2.8708,2.8716,2.872,2.8736,2.8768,2.8773,2.8777,2.8797,2.8803,2.8724,2.8724,2.8724,0,2.8196,2.8255,2.8279,2.8321,2.8348,2.8364,2.8405,2.8433,2.8488,2.8507,2.8502,2.8591,2.8621,2.8683,2.8695,2.8714,2.8727,2.8714,2.877,2.8775,2.878,2.8798,2.8805,2.8725,2.8725,2.8725,2.8724,0,2.8257,2.8298,2.8324,2.8379,2.8409,2.8449,2.8481,2.8509,2.8522,2.8547,2.8601,2.8638,2.8687,2.8703,2.8716,2.8768,2.8765,2.8764,2.8754,2.8785,2.8804,2.8811,2.8725,2.8725,2.8725,2.8725,0,0,2.8283,2.8353,2.8362,2.8388,2.844,2.8473,2.8515,2.8564,2.8588,2.8626,2.8664,2.8723,2.8724,2.8752,2.8769,2.8797,2.8836,2.8794,2.8795,2.8802,2.8899,2.89,2.8907,2.8841,2.8843,2.8844,2.8896,0,2.8324,2.84,2.8425,2.8489,2.8528,2.8546,2.8583,2.862,2.8645,2.8682,2.871,2.8752,2.8749,2.8767,2.8795,2.8825,2.8856,2.8821,2.8878,2.888,2.8867,2.8916,2.8917,2.8964,2.8903,2.8904,2.8905,0,2.8381,2.8422,2.8489,2.8539,2.8557,2.859,2.8638,2.8673,2.8716,2.8732,2.8765,2.8781,2.8828,2.8815,2.8881,2.8857,2.8882,2.89,2.8903,2.891,2.8895,2.8926,2.8979,2.8987,2.8916,2.8915,2.8914,0,2.8396,2.8467,2.8518,2.8539,2.8598,2.8621,2.8647,2.8689,2.8717,2.8759,2.8779,2.8825,2.8851,2.8887,2.8916,2.8903,2.898,2.8969,2.8996,2.8996,2.9012,2.901,2.9071,2.9026,2.9026,2.9025,2.9025,0,2.8439,2.848,2.8526,2.8557,2.8604,2.8633,2.868,2.8707,2.8744,2.8782,2.88,2.8835,2.887,2.8911,2.8933,2.8986,2.8997,2.9012,2.9018,2.9012,2.901,2.9029,2.9027,2.9027,2.9027,2.9027,2.9026,0,2.8463,2.8495,2.8552,2.8604,2.8618,2.8651,2.8696,2.8727,2.8753,2.8801,2.8814,2.8855,2.8904,2.8936,2.8998,2.9013,2.9071,2.9075,2.9057,2.906,2.9086,2.9084,2.9161,2.9174,2.9119,2.9119,2.912,0,2.8489,2.8522,2.8578,2.8605,2.8631,2.8673,2.8703,2.8733,2.8763,2.8817,2.8843,2.8893,2.8934,2.9012,2.9048,2.9096,2.9102,2.9126,2.911,2.9103,2.9105,2.9103,2.9108,2.9129,2.913,2.913,2.913,0,2.8533,2.8548,2.8589,2.8638,2.8673,2.8712,2.8751,2.8772,2.881,2.8843,2.8894,2.8926,2.8991,2.9041,2.9093,2.912,2.9133,2.9135,2.9145,2.9138,2.9127,2.9136,2.9066,2.9133,2.9133,2.9133,2.9133,2.9133,2.856,2.8591,2.8636,2.8683,2.8716,2.8753,2.8786,2.8817,2.8859,2.8914,2.893,2.8983,2.9028,2.91,2.9128,2.9171,2.9169,2.9181,2.9185,2.9188,2.9189,2.912,2.9181,2.9181,2.9181,2.9181,2.9181,0,2.8607,2.8637,2.8679,2.8735,2.8772,2.878,2.8825,2.8856,2.8902,2.8943,2.8985,2.9044,2.9093,2.9134,2.9186,2.9213,2.922,2.9225,2.9224,2.9231,2.9188,2.9175,2.9219,2.9219,2.9219,2.9219,2.9219,2.9219,2.8635,2.8688,2.8709,2.8779,2.881,2.8862,2.8887,2.8922,2.8955,2.9021,2.9062,2.9088,2.913,2.9185,2.9232,2.9243,2.9262,2.9266,2.9279,2.9238,2.9233,2.9229,2.9218,2.927,2.927,2.9319,2.9319,2.9319]}]]